DLH340 EDDF-LIEE

Flight info

Callsign DLH340
Flight time N/A
Altitude 37000
Route ANEKI2L ANEKI Y163 NATOR DCT TRA DCT RIPUS DCT GERSA DCT SOSON DCT ODINA DCT MONEB DCT EVROG DCT TOBGA DCT SUNEV DCT ROMPO DCT IDEPA DCT LABOM Q125 KOVAS
Aircraft A320/M-SDE2E3FGIJ1LORWXY/HB1

Departure

Time N/A
Airport Frankfurt Main Airport (EDDF)

Arrival

Time 2026-05-01 12:43
Airport Cagliari Elmas Airport (LIEE)
Time Latitude Longitude Altitude Speed Heading
2026-05-01 12:26 40.33753 9.38188 23085 ft 379 kts 204°
2026-05-01 12:27 40.31293 9.36944 22619 ft 377 kts 205°
2026-05-01 12:27 40.26419 9.34486 21696 ft 374 kts 204°
2026-05-01 12:28 40.21565 9.32048 20789 ft 373 kts 204°
2026-05-01 12:28 40.19145 9.30836 20347 ft 372 kts 204°
2026-05-01 12:28 40.14355 9.28434 19463 ft 371 kts 204°
2026-05-01 12:29 40.11942 9.27227 19017 ft 371 kts 203°
2026-05-01 12:29 40.09530 9.26021 18573 ft 371 kts 204°
2026-05-01 12:29 40.04714 9.23609 17639 ft 369 kts 204°
2026-05-01 12:30 39.99954 9.21229 16781 ft 364 kts 203°
2026-05-01 12:30 39.97599 9.20051 16364 ft 361 kts 203°
2026-05-01 12:30 39.95262 9.18883 15959 ft 359 kts 203°
2026-05-01 12:31 39.92934 9.17724 15546 ft 358 kts 203°
2026-05-01 12:31 39.90615 9.16571 15137 ft 356 kts 203°
2026-05-01 12:31 39.88311 9.15426 14575 ft 353 kts 203°
2026-05-01 12:31 39.86054 9.14319 14159 ft 340 kts 200°
2026-05-01 12:32 39.83810 9.13525 13745 ft 330 kts 196°
2026-05-01 12:32 39.79388 9.12036 12988 ft 327 kts 196°
2026-05-01 12:32 39.77932 9.11544 12722 ft 326 kts 196°
2026-05-01 12:33 39.75740 9.10802 12346 ft 325 kts 196°
2026-05-01 12:33 39.73561 9.10065 11957 ft 324 kts 196°
2026-05-01 12:33 39.71384 9.09331 11573 ft 322 kts 196°
2026-05-01 12:33 39.69215 9.08607 11172 ft 321 kts 195°
2026-05-01 12:34 39.67053 9.07885 10784 ft 320 kts 196°
2026-05-01 12:34 39.64884 9.07222 10384 ft 321 kts 189°
2026-05-01 12:34 39.62664 9.07082 9973 ft 318 kts 179°
2026-05-01 12:34 39.60495 9.07139 9542 ft 305 kts 179°
2026-05-01 12:35 39.58417 9.07195 9157 ft 293 kts 179°
2026-05-01 12:35 39.56422 9.07246 8771 ft 281 kts 179°
2026-05-01 12:35 39.54512 9.07241 8397 ft 268 kts 187°
2026-05-01 12:35 39.52749 9.06669 8040 ft 256 kts 205°
2026-05-01 12:36 39.51248 9.05510 7679 ft 251 kts 218°
2026-05-01 12:36 39.49840 9.04168 7315 ft 251 kts 217°
2026-05-01 12:36 39.48431 9.02829 6945 ft 251 kts 216°
2026-05-01 12:36 39.47014 9.01488 6557 ft 253 kts 216°
2026-05-01 12:37 39.45603 9.00162 6154 ft 246 kts 216°
2026-05-01 12:37 39.44242 8.98884 5771 ft 238 kts 216°
2026-05-01 12:37 39.42921 8.97643 5391 ft 232 kts 216°
2026-05-01 12:37 39.41631 8.96433 5034 ft 227 kts 216°
2026-05-01 12:38 39.40379 8.95256 4659 ft 216 kts 215°
2026-05-01 12:38 39.39199 8.94146 4341 ft 204 kts 215°
2026-05-01 12:38 39.38088 8.93104 3979 ft 196 kts 213°
2026-05-01 12:38 39.36876 8.92509 3616 ft 183 kts 175°
2026-05-01 12:39 39.35752 8.93105 3303 ft 175 kts 138°
2026-05-01 12:39 39.34851 8.94135 2987 ft 171 kts 136°
2026-05-01 12:39 39.33989 8.95134 2690 ft 161 kts 137°
2026-05-01 12:39 39.33178 8.96077 2411 ft 152 kts 135°
2026-05-01 12:40 39.32405 8.96978 2152 ft 147 kts 135°
2026-05-01 12:40 39.31666 8.97837 1927 ft 140 kts 134°
2026-05-01 12:40 39.30949 8.98668 1677 ft 136 kts 134°
2026-05-01 12:40 39.30254 8.99475 1430 ft 133 kts 134°
2026-05-01 12:41 39.29576 9.00263 1219 ft 130 kts 136°
2026-05-01 12:41 39.28895 9.01053 963 ft 133 kts 138°
2026-05-01 12:41 39.28215 9.01866 696 ft 132 kts 140°
2026-05-01 12:41 39.27544 9.02660 453 ft 131 kts 141°
2026-05-01 12:42 39.26847 9.03461 252 ft 137 kts 142°
2026-05-01 12:42 39.26140 9.04279 65 ft 136 kts 141°
2026-05-01 12:42 39.25476 9.05043 15 ft 112 kts 138°
2026-05-01 12:42 39.25028 9.05568 17 ft 62 kts 138°
2026-05-01 12:43 39.24784 9.05852 16 ft 29 kts 137°
2026-05-01 12:43 39.24685 9.05983 15 ft 16 kts 113°
2026-05-01 12:43 39.24696 9.06082 16 ft 5 kts 66°
2026-05-01 12:43 39.24709 9.06121 15 ft 4 kts 66°
2026-05-01 12:44 39.24724 9.06148 15 ft 3 kts 43°
2026-05-01 12:44 39.24747 9.06157 15 ft 5 kts 359°
2026-05-01 12:44 39.24860 9.06036 15 ft 13 kts 317°
2026-05-01 12:45 39.24985 9.05891 15 ft 15 kts 318°
2026-05-01 12:45 39.25060 9.05804 15 ft 14 kts 318°
2026-05-01 12:45 39.25130 9.05793 15 ft 10 kts 48°
2026-05-01 12:46 39.25161 9.05862 15 ft 8 kts 62°
2026-05-01 12:46 39.25201 9.05898 15 ft 5 kts
2026-05-01 12:46 39.25225 9.05901 15 ft 0 kts